Location: Karcze
(52.0945°N, 22.4786°E)
Time: 12:45:15
(UTC+00:00)

Cosmos 1190 Rocket - Pass Details

Date: 14 July 2020
Orbit: 756 x 781 km, 74.1° (Epoch: 07 August)

Event Time Altitude Azimuth Distance (km) Brightness Sun altitude
Exits shadow 00:26:21 16° 190° (S) 1,886 5.4 -12.4°
Maximum altitude 00:30:27 68° 111° (ESE) 827 4.2 -12.2°
Drops below altitude 10° 00:35:40 10° 29° (NNE) 2,324 8.1 -11.8°
Sets 00:38:05 0° 27° (NNE) 3,259 9.5 -11.6°
